Home > Weather > Gävle > Past weeks

Flag for Sweden Past Weather in Gävle, Sweden — Yesterday and Last 2 Weeks

Now
73 °F

Sunny.


Feels Like: 76 °F
Forecast: 53 / 83 °F
Wind: 1 mph from East

Location: Films Kyrkby

Current Time: Jul 23, 2016 at 9:14:51 PM

Latest Report: Jul 23, 2016 at 8:00 PM


Visibility: 25 mi

Pressure: 30.10 "Hg

Humidity: 62%

Dew Point: 59 °F

Location of GävleLocation

Past Weather in Gävle — Graph

°F

Gävle Temperature Yesterday

Maximum temperature yesterday: 75 °F (at 4:00 PM)
Minimum temperature yesterday: 46 °F (at 3:00 AM)
Average temperature yesterday: 61 °F

High & Low Weather Summary for the Past Weeks

 TemperatureHumidityPressure
High76 °F (Jul 20, 2:00 PM)100% (Jul 9, 5:00 PM)30.14 "Hg (Jul 9, 5:00 PM)
Low42 °F (Jul 21, 4:00 AM)36% (Jul 8, 7:00 PM)29.41 "Hg (Jul 11, 7:00 PM)
Average62 °F77%29.82 "Hg
* Reported Jul 8 7:00 PM — Jul 23 7:00 PM, Gävle, Weather by CustomWeather, © 2016

Note: Actual official high and low records may vary slightly from our data, if they occured in-between our weather recording intervals... More about our weather records

Advertising

Gävle Weather History for the Previous 24 Hours

Scroll right to see more
 ConditionsComfort  
Time TempWeatherWind HumidityBarometerVisibility
7:00 PM
Sat, Jul 23
74 °FSunny.1 mph57%30.10 "Hg22 mi
6:00 PM75 °FSunny.1 mph54%30.10 "Hg25 mi
5:00 PM75 °FSunny.2 mph52%30.10 "Hg25 mi
4:00 PM74 °FSunny.2 mph56%30.11 "Hg25 mi
3:00 PM74 °FPassing clouds.2 mph59%30.12 "Hg31 mi
2:00 PM75 °FScattered clouds.2 mph57%30.11 "Hg19 mi
1:00 PM74 °FPartly sunny.2 mph57%30.12 "Hg25 mi
12:00 PM74 °FPartly sunny.1 mph61%30.13 "Hg22 mi
11:00 AM72 °FSunny.2 mph60%30.13 "Hg28 mi
10:00 AM71 °FSunny.2 mph56%30.13 "Hg25 mi
9:00 AM68 °FSunny.1 mph66%30.14 "Hg19 mi
8:00 AM64 °FSunny.1 mph76%30.13 "Hg22 mi
7:00 AM59 °FSunny.No wind88%30.12 "Hg19 mi
6:00 AM49 °FSunny.No wind100%30.13 "Hg17 mi
5:00 AM45 °FSunny.No wind100%30.13 "Hg4 mi
4:00 AM44 °FClear.No wind100%30.13 "Hg1 mi
3:00 AM45 °FClear.No wind100%30.13 "Hg1 mi
2:00 AM45 °FClear.No wind99%30.13 "Hg1 mi
1:00 AM47 °FFog.No wind99%30.14 "Hg2 mi
12:00 AM49 °FClear.No wind99%30.13 "Hg8 mi
11:00 PM
Fri, Jul 22
52 °FClear.No wind97%30.13 "Hg17 mi
10:00 PM56 °FClear.No wind90%30.13 "Hg28 mi
9:00 PM63 °FSunny.1 mph70%30.12 "Hg31 mi
Weather by CustomWeather, © 2016

See weather overviewHow to use our weather pages